Вернуться в каталог

STARLINK-36202

АктивенСвязьVLEO
NORAD 67094·PAYLOAD·🇺🇸 United States

Запущен Dec 14, 2025 с Vandenberg Space Force Base

Loading…

Ближайшие Пролёты (ближайшие 24 часа)

TLE

СвежийSource: CelesTrak SupGP

Эпоха: Sep 14, 2026, 22:54 UTC

1 67094C 25298V   26257.95465278  .00035823  00000+0  30017-2 0  2570
2 67094  69.9997 257.1042 0003752 265.7263   5.9606 14.98315579    15

Отслеживайте STARLINK-36202 в реальном времени с AllMySat

Download on the App Store